User: anonymous   Login
Location: Unspecified
(0.0000°N, 0.0000°E)
Time: 19:03:07
(UTC+00:00)
Language:

STARLINK-32592 - Orbit

View from above orbital plane
View from above orbital plane
View from above satellite
View from above satellite

Ground track
Ground track

The orbit is defined by the following mean orbital elements,

1 62035U          26145.47252409 +.00000000 +00000-0 +33175-3 0 00002
2 62035  42.9999 190.0398 0001549 281.7078  78.3600 15.27603665    07
Epoch (UTC): 25 May 2026 11:20:26
Eccentricity: 0.0001549
inclination: 42.9999°
perigee height: 482 km
apogee height: 484 km
right ascension of ascending node: 190.0398°
argument of perigee: 281.7078°
revolutions per day: 15.27603665
mean anomaly at epoch: 78.3600°

The dashed part of the orbit path shows where the satellite is in the earth's shadow,  

DLR